Logan, UT

4:47 AM MDT on April 21, 2018 (GMT -0600)
Logan-Cache

Weather History for KLGU - June, 2013

Change the Weather History Date:

Saturday, June 29, 2013

  Actual Average Record
Temperature  
Mean Temperature 78 °F -  
Max Temperature 98 °F 86 °F 100 °F (2015)
Min Temperature 57 °F 50 °F 39 °F (1969)
Cooling Degree Days 12    
Growing Degree Days 28 (Base 50)    
Moisture  
Dew Point 50 °F    
Average Humidity 43    
Maximum Humidity 75    
Minimum Humidity 15    
Precipitation  
Precipitation 0.00 in - - ()
Sea Level Pressure  
Sea Level Pressure 29.92 in    
Wind  
Wind Speed 4 mph (North)    
Max Wind Speed 17 mph    
Max Gust Speed -    
Visibility 10 miles    
Events      
Averages and records for this station are not official NWS values.
T = Trace of Precipitation, MM = Missing Value Source: NWS Daily Summary

Daily Weather History Graph

Daily Weather History Graph

Search for Another Location

Airport or City:

Astronomy

Jun. 29, 2013 Rise Set
Actual Time 5:55 AM MDT 9:06 PM MDT
Civil Twilight 5:21 AM MDT 9:40 PM MDT
Nautical Twilight 4:37 AM MDT 10:24 PM MDT
Astronomical Twilight 3:44 AM MDT 11:16 PM MDT
Moon 12:30 AM MDT (6/29) 1:17 PM MDT (6/29)
Length of Visible Light 16h 19m
Length of Day
15h 10m
Waning Gibbous, 55% of the Moon is Illuminated
Jun 29
Waning Gibbous
Jun 29
Last Quarter
Jul 8
New
Jul 15
First Quarter
Jul 22
Full

Hourly Weather History & Observations

Time (MDT) Temp. Heat Index Dew Point Humidity Pressure Visibility Wind Dir Wind Speed Gust Speed Precip Events Conditions
12:51 AM 69.1 °F - 52.0 °F 54% 29.96 in 10.0 mi Calm Calm - N/A   Clear
1:51 AM 63.0 °F - 54.0 °F 72% 29.96 in 10.0 mi North 5.8 mph - N/A   Clear
2:51 AM 69.1 °F - 48.9 °F 49% 29.95 in 10.0 mi Calm Calm - N/A   Clear
3:51 AM 62.1 °F - 51.1 °F 67% 29.96 in 10.0 mi NE 4.6 mph - N/A   Clear
4:51 AM 59.0 °F - 51.1 °F 75% 29.98 in 10.0 mi Calm Calm - N/A   Clear
5:51 AM 61.0 °F - 48.9 °F 64% 29.99 in 10.0 mi West 3.5 mph - N/A   Clear
6:51 AM 57.9 °F - 48.0 °F 70% 30.02 in 10.0 mi ENE 5.8 mph - N/A   Clear
7:51 AM 64.9 °F - 54.0 °F 68% 30.02 in 10.0 mi West 3.5 mph - N/A   Clear
8:51 AM 71.1 °F - 54.0 °F 55% 30.00 in 10.0 mi Calm Calm - N/A   Clear
9:51 AM 73.0 °F - 51.1 °F 46% 30.01 in 10.0 mi North 6.9 mph - N/A   Clear
10:51 AM 82.0 °F - 45.0 °F 27% 29.99 in 10.0 mi North 6.9 mph - N/A   Clear
11:51 AM 84.0 °F - 43.0 °F 24% 29.97 in 10.0 mi NNW 6.9 mph - N/A   Clear
12:51 PM 88.0 °F - 46.9 °F 24% 29.94 in 10.0 mi WSW 3.5 mph - N/A   Clear
1:51 PM 91.0 °F - 48.0 °F 23% 29.93 in 10.0 mi North 6.9 mph - N/A   Clear
2:51 PM 93.0 °F - 50.0 °F 23% 29.88 in 10.0 mi North 8.1 mph - N/A   Clear
3:51 PM 95.0 °F - 51.1 °F 22% 29.87 in 10.0 mi North 8.1 mph - N/A   Clear
4:51 PM 96.1 °F - 50.0 °F 21% 29.84 in 10.0 mi North 8.1 mph - N/A   Clear
5:51 PM 98.1 °F - 42.1 °F 15% 29.81 in 10.0 mi North 4.6 mph - N/A   Clear
6:51 PM 96.1 °F - 45.0 °F 17% 29.81 in 10.0 mi NNW 4.6 mph - N/A   Clear
7:51 PM 88.0 °F 87.6 °F 60.1 °F 39% 29.81 in 10.0 mi NNW 4.6 mph - N/A   Clear
8:51 PM 84.9 °F 84.2 °F 57.9 °F 40% 29.81 in 10.0 mi South 5.8 mph - N/A   Clear
9:51 PM 73.9 °F - 60.1 °F 62% 29.84 in 10.0 mi Variable 3.5 mph - N/A   Clear
10:51 PM 78.1 °F - 48.9 °F 36% 29.88 in 10.0 mi NNW 17.3 mph - N/A   Clear
11:51 PM 80.1 °F - 46.9 °F 31% 29.88 in 10.0 mi NE 6.9 mph - N/A   Clear